Regional Weather Roundup
Issued by NWS

Home | Current Version | Previous Version | Graphics & Text | Print | Product List | Glossary On
Versions: 1 2 3 4 5 6 7 8 9 10 11 12 13 14 15 16 17 18 19 20 21 22 23 24 25 26 27 28 29 30 31 32 33 34 35 36 37 38 39 40 41 42 43 44 45 46 47 48 49 50
000
ASUS45 KABQ 020001
RWRNM
WEATHER ROUNDUP FOR NEW MEXICO
NATIONAL WEATHER SERVICE ALBUQUERQUE NM
600 PM MDT WED APR 01 2015

NOTE: "FAIR" MEANS FEW OR NO CLOUDS BELOW 12,000 FEET AGL WITH NO
       SIGNIFICANT WEATHER OR OBSTRUCTIONS TO VISION.

      THIS PRODUCT IS RELEASED AS TWO VERSIONS.  ONE VERSION NEAR
      THE TOP OF THE HOUR CONTAINING PRELIMINARY DATA FROM ALBUQUERQUE
      AND OTHER STATIONS.  A FINAL VERSION WITH ADDITIONAL DATA IS
      ISSUED ABOUT 10 MINUTES AFTER THE HOUR.

NMZ501-503-504-510>518-020100-
NORTHWEST PLATEAU/NORTHCENTRAL MOUNTAINS

CITY           SKY/WX    TMP DP  RH WIND       PRES   REMARKS
FARMINGTON     SUNNY     70   9   9 W15G29    29.83S
6HR MIN TEMP:  68; 6HR MAX TEMP:  73;

SANTA FE       PTSUNNY   67  16  14 W20       29.90R
6HR MIN TEMP:  66; 6HR MAX TEMP:  72;

TAOS           PTSUNNY   61  18  18 W24G31    29.94R

$$
NMZ402-403-502-505>509-020100-
WESTCENTRAL MOUNTAINS/SOUTHWEST MOUNTAINS

CITY           SKY/WX    TMP DP  RH WIND       PRES   REMARKS
GALLUP         MOSUNNY   68  15  13 W21G32    29.94S
6HR MIN TEMP:  62; 6HR MAX TEMP:  72;

GRANTS         MOSUNNY   66  21  18 W12G25    29.95F

$$
NMZ407-409-411-412-020100-
SOUTHERN DESERTS

CITY           SKY/WX    TMP DP  RH WIND       PRES   REMARKS
DEMING         MOSUNNY   78  29  16 W16G29    29.91S
6HR MIN TEMP:  75; 6HR MAX TEMP:  80;

ALAMOGORDO     MOSUNNY   81  21  11 W20G25    29.86S
T OR C         SUNNY     78  24  13 W23G32    29.86S
6HR MIN TEMP:  72; 6HR MAX TEMP:  81;


$$
NMZ519>523-020100-
CENTRAL VALLEYS/CENTRAL HIGHLANDS

CITY           SKY/WX    TMP DP  RH WIND       PRES   REMARKS
ALBUQUERQUE    MOSUNNY   74  22  14 W21G26    29.86F
6HR MIN TEMP:  70; 6HR MAX TEMP:  76;

DOUBLE EAGLE   PTSUNNY   70  21  16 W23G32    29.90S
MORIARTY ARPT  FAIR      69  15  12 W20G25    29.92S
6HR MIN TEMP:  68; 6HR MAX TEMP:  73;

CLINES CORNERS MOSUNNY   66  18  15 W26G38    29.92S
6HR MIN TEMP:  64; 6HR MAX TEMP:  69;

BELEN          FAIR      75  17  11 W16G31    29.87R
6HR MIN TEMP:  73; 6HR MAX TEMP:  79;

SOCORRO        NOT AVBL

$$
NMZ524>526-539-540-020100-
SOUTHCENTRAL MOUNTAINS

CITY           SKY/WX    TMP DP  RH WIND       PRES   REMARKS
RUIDOSO        NOT AVBL

$$
NMZ527>531-020100-
NORTHEAST HIGHLANDS/NORTHEAST PLAINS

CITY           SKY/WX    TMP DP  RH WIND       PRES   REMARKS
LAS VEGAS      MOSUNNY   65  16  15 W24G37    29.89R
6HR MIN TEMP:  65; 6HR MAX TEMP:  70;

RATON          PTSUNNY   66  14  13 W25G35    29.80R
6HR MIN TEMP:  66; 6HR MAX TEMP:  74;

CLAYTON        PTSUNNY   78  19  11 W26G32    29.70F
6HR MIN TEMP:  76; 6HR MAX TEMP:  80;


$$
NMZ532>537-020100-
EASTCENTRAL PLAINS

CITY           SKY/WX    TMP DP  RH WIND       PRES   REMARKS
TUCUMCARI      MOSUNNY   81  19  10 W26G32    29.71S
6HR MIN TEMP:  80; 6HR MAX TEMP:  86;

CANNON AFB     NOT AVBL
CLOVIS AIRPORT MOSUNNY   79  28  15 W26G32    29.77S

$$
NMZ028-029-538-020100-
SOUTHEAST PLAINS

CITY           SKY/WX    TMP DP  RH WIND       PRES   REMARKS
ROSWELL        SUNNY     84  23  10 W21       29.77S
6HR MIN TEMP:  80; 6HR MAX TEMP:  86;

ARTESIA        MOSUNNY   82  30  15 SW20      29.79R
CARLSBAD       MOSUNNY   84  28  13 W18G29    29.79R
6HR MIN TEMP:  80; 6HR MAX TEMP:  88;

HOBBS          MOSUNNY   81  30  16 SW12G21   29.82R


$$


USA.gov is the U.S. government's official web portal to all federal, state and local government web resources and services.